Voltar ao catálogo

STARLINK-36924

AtivoComunicaçõesVLEO
NORAD 68054·PAYLOAD·🇺🇸 United States

Lançado Mar 2, 2026 de Vandenberg Space Force Base

Loading…

Próximas Passagens (próximas 24 horas)

TLE

AtualizadoSource: CelesTrak SupGP

Época: Sep 15, 2026, 03:19 UTC

1 68054C 26041Q   26258.13868056 -.00121840  00000+0 -35969-2 0  2585
2 68054  53.1574 245.0051 0001285  91.7132 247.4984 15.34477103    10

Acompanhe STARLINK-36924 em tempo real com AllMySat

Download on the App Store